| time (UTC) | temp F | wind direction | speed MPH | gust MPH | rain 1hr in | rain 24hr in | rain mn in | humidity % | barometer mb |
| 20260506225503 | 76 | 355 | 2.0 | 5.0 | 0.00 | 0.00 | 0.00 | 84 | 1008.6 |
| 20260506225004 | 77 | 350 | 2.0 | 7.0 | 0.00 | 0.00 | 0.00 | 84 | 1008.6 |
| 20260506224503 | 78 | 352 | 3.0 | 8.0 | 0.00 | 0.00 | 0.00 | 82 | 1008.5 |
| 20260506224003 | 80 | 3 | 2.0 | 8.0 | 0.00 | 0.00 | 0.00 | 81 | 1008.3 |
| 20260506223504 | 81 | 27 | 1.0 | 8.0 | 0.00 | 0.00 | 0.00 | 84 | 1008.3 |
| 20260506223003 | 82 | 22 | 1.0 | 3.0 | 0.00 | 0.00 | 0.00 | 83 | 1008.1 |
| 20260506222503 | 82 | 271 | 1.0 | 3.0 | 0.00 | 0.00 | 0.00 | 82 | 1008.3 |
| 20260506222004 | 82 | 224 | 1.0 | 3.0 | 0.00 | 0.00 | 0.00 | 82 | 1008.3 |
| 20260506221504 | 82 | 256 | 0.0 | 2.0 | 0.00 | 0.00 | 0.00 | 82 | 1008.1 |
| 20260506221004 | 83 | 325 | 1.0 | 3.0 | 0.00 | 0.00 | 0.00 | 81 | 1008.1 |
| 20260506220524 | 83 | 315 | 1.0 | 3.0 | 0.00 | 0.00 | 0.00 | 81 | 1008.0 |
| 20260506220004 | 84 | 318 | 0.0 | 1.0 | 0.00 | 0.00 | 0.00 | 80 | 1007.9 |
| 20260506215503 | 84 | 158 | 0.0 | 3.0 | 0.00 | 0.00 | 0.00 | 78 | 1007.9 |
| 20260506215004 | 85 | 174 | 1.0 | 3.0 | 0.00 | 0.00 | 0.00 | 76 | 1007.8 |
| 20260506214503 | 85 | 223 | 1.0 | 3.0 | 0.00 | 0.00 | 0.00 | 76 | 1007.9 |
| 20260506214025 | 86 | 195 | 1.0 | 2.0 | 0.00 | 0.00 | 0.00 | 74 | 1007.9 |
| 20260506213503 | 86 | 158 | 2.0 | 4.0 | 0.00 | 0.00 | 0.00 | 73 | 1007.8 |
| 20260506213003 | 86 | 165 | 1.0 | 4.0 | 0.00 | 0.00 | 0.00 | 74 | 1007.7 |
| 20260506212503 | 86 | 155 | 1.0 | 3.0 | 0.00 | 0.00 | 0.00 | 76 | 1007.9 |
| 20260506212003 | 85 | 155 | 1.0 | 3.0 | 0.00 | 0.00 | 0.00 | 76 | 1008.0 |
| 20260506211504 | 85 | 155 | 1.0 | 3.0 | 0.00 | 0.00 | 0.00 | 76 | 1008.1 |
| 20260506211003 | 85 | 140 | 2.0 | 6.0 | 0.00 | 0.00 | 0.00 | 76 | 1008.2 |
| 20260506210503 | 85 | 167 | 2.0 | 6.0 | 0.00 | 0.00 | 0.00 | 74 | 1008.2 |
| 20260506210004 | 86 | 187 | 2.0 | 5.0 | 0.00 | 0.00 | 0.00 | 73 | 1008.2 |
| 20260506205503 | 86 | 155 | 2.0 | 5.0 | 0.00 | 0.00 | 0.00 | 75 | 1008.2 |
| 20260506205003 | 86 | 137 | 2.0 | 6.0 | 0.00 | 0.00 | 0.00 | 73 | 1008.2 |
| 20260506204503 | 86 | 176 | 3.0 | 6.0 | 0.00 | 0.00 | 0.00 | 72 | 1008.2 |
| 20260506204003 | 86 | 183 | 3.0 | 6.0 | 0.00 | 0.00 | 0.00 | 73 | 1008.3 |
| 20260506203503 | 87 | 178 | 2.0 | 5.0 | 0.00 | 0.00 | 0.00 | 73 | 1008.2 |
| 20260506203024 | 86 | 192 | 2.0 | 5.0 | 0.00 | 0.00 | 0.00 | 73 | 1008.3 |
| 20260506202503 | 87 | 167 | 2.0 | 5.0 | 0.00 | 0.00 | 0.00 | 72 | 1008.4 |
| 20260506202003 | 87 | 164 | 2.0 | 5.0 | 0.00 | 0.00 | 0.00 | 73 | 1008.3 |
| 20260506201503 | 87 | 159 | 3.0 | 10.0 | 0.00 | 0.00 | 0.00 | 73 | 1008.4 |
| 20260506201003 | 88 | 153 | 3.0 | 10.0 | 0.00 | 0.00 | 0.00 | 71 | 1008.4 |
| 20260506200503 | 87 | 173 | 3.0 | 6.0 | 0.00 | 0.00 | 0.00 | 73 | 1008.3 |
| 20260506200004 | 86 | 198 | 2.0 | 6.0 | 0.00 | 0.00 | 0.00 | 74 | 1008.4 |
| 20260506195503 | 85 | 214 | 2.0 | 4.0 | 0.00 | 0.00 | 0.00 | 74 | 1008.3 |
| 20260506195003 | 87 | 212 | 2.0 | 4.0 | 0.00 | 0.00 | 0.00 | 73 | 1008.3 |
| 20260506194503 | 87 | 185 | 2.0 | 4.0 | 0.00 | 0.00 | 0.00 | 72 | 1008.3 |
| 20260506194003 | 87 | 159 | 1.0 | 4.0 | 0.00 | 0.00 | 0.00 | 74 | 1008.3 |
| 20260506193524 | 86 | 188 | 1.0 | 4.0 | 0.00 | 0.00 | 0.00 | 73 | 1008.4 |
| 20260506193003 | 85 | 218 | 1.0 | 3.0 | 0.00 | 0.00 | 0.00 | 77 | 1008.3 |
| 20260506192504 | 84 | 189 | 1.0 | 2.0 | 0.00 | 0.00 | 0.00 | 80 | 1008.3 |
| 20260506192003 | 83 | 242 | 1.0 | 3.0 | 0.00 | 0.00 | 0.00 | 81 | 1008.5 |
| 20260506191524 | 83 | 173 | 2.0 | 4.0 | 0.00 | 0.00 | 0.00 | 79 | 1008.7 |
| 20260506191003 | 84 | 154 | 2.0 | 4.0 | 0.00 | 0.00 | 0.00 | 76 | 1008.8 |
| 20260506190503 | 84 | 151 | 2.0 | 4.0 | 0.00 | 0.00 | 0.00 | 78 | 1008.9 |
| 20260506190004 | 84 | 180 | 2.0 | 4.0 | 0.00 | 0.00 | 0.00 | 77 | 1009.0 |
| 20260506185504 | 84 | 175 | 2.0 | 4.0 | 0.00 | 0.00 | 0.00 | 76 | 1009.1 |
| 20260506185024 | 84 | 154 | 1.0 | 4.0 | 0.00 | 0.00 | 0.00 | 79 | 1009.2 |
| 20260506184504 | 83 | 146 | 2.0 | 4.0 | 0.00 | 0.00 | 0.00 | 81 | 1009.2 |
| 20260506184024 | 82 | 131 | 2.0 | 4.0 | 0.00 | 0.00 | 0.00 | 81 | 1009.5 |
| 20260506183504 | 82 | 136 | 1.0 | 4.0 | 0.00 | 0.00 | 0.00 | 83 | 1009.6 |
| 20260506183004 | 81 | 137 | 1.0 | 4.0 | 0.00 | 0.00 | 0.00 | 82 | 1009.8 |
| 20260506182524 | 81 | 141 | 1.0 | 3.0 | 0.00 | 0.00 | 0.00 | 82 | 1009.9 |
| 20260506182003 | 81 | 145 | 1.0 | 3.0 | 0.00 | 0.00 | 0.00 | 83 | 1009.9 |
| 20260506181524 | 81 | 143 | 1.0 | 3.0 | 0.00 | 0.00 | 0.00 | 83 | 1010.1 |
| 20260506181003 | 81 | 149 | 1.0 | 3.0 | 0.00 | 0.00 | 0.00 | 83 | 1010.2 |
| 20260506180503 | 81 | 174 | 1.0 | 2.0 | 0.00 | 0.00 | 0.00 | 83 | 1010.5 |
| 20260506180024 | 81 | 170 | 1.0 | 2.0 | 0.00 | 0.00 | 0.00 | 84 | 1010.5 |
| 20260506175503 | 81 | 166 | 1.0 | 2.0 | 0.00 | 0.00 | 0.00 | 85 | 1010.6 |
| 20260506175003 | 81 | 145 | 1.0 | 2.0 | 0.00 | 0.00 | 0.00 | 84 | 1010.7 |
| 20260506174504 | 81 | 159 | 1.0 | 2.0 | 0.00 | 0.00 | 0.00 | 83 | 1010.7 |
| 20260506174003 | 80 | 144 | 1.0 | 2.0 | 0.00 | 0.00 | 0.00 | 84 | 1011.0 |
| 20260506173524 | 80 | 117 | 1.0 | 3.0 | 0.00 | 0.00 | 0.00 | 83 | 1011.1 |
| 20260506173003 | 81 | 135 | 1.0 | 3.0 | 0.00 | 0.00 | 0.00 | 83 | 1011.0 |
| 20260506172503 | 81 | 175 | 1.0 | 3.0 | 0.00 | 0.00 | 0.00 | 84 | 1011.1 |
| 20260506172024 | 80 | 175 | 1.0 | 3.0 | 0.00 | 0.00 | 0.00 | 85 | 1011.0 |
| 20260506171504 | 80 | 181 | 1.0 | 3.0 | 0.00 | 0.00 | 0.00 | 85 | 1011.2 |
| 20260506171003 | 80 | 193 | 1.0 | 2.0 | 0.00 | 0.00 | 0.00 | 86 | 1011.4 |
| 20260506170503 | 80 | 174 | 1.0 | 3.0 | 0.00 | 0.00 | 0.00 | 87 | 1011.4 |
| 20260506170004 | 79 | 177 | 1.0 | 3.0 | 0.00 | 0.00 | 0.00 | 87 | 1011.3 |
| 20260506165504 | 79 | 201 | 0.0 | 2.0 | 0.00 | 0.00 | 0.00 | 88 | 1011.4 |
| 20260506165003 | 79 | 327 | 0.0 | 1.0 | 0.00 | 0.00 | 0.00 | 89 | 1011.3 |
| 20260506164503 | 79 | 130 | 0.0 | 2.0 | 0.00 | 0.00 | 0.00 | 89 | 1011.2 |
| 20260506164003 | 79 | 136 | 0.0 | 2.0 | 0.00 | 0.00 | 0.00 | 88 | 1011.2 |
| 20260506163503 | 79 | 318 | 0.0 | 2.0 | 0.00 | 0.00 | 0.00 | 89 | 1011.2 |
| 20260506163003 | 79 | 288 | 1.0 | 2.0 | 0.00 | 0.00 | 0.00 | 88 | 1011.1 |
| 20260506162503 | 79 | 314 | 1.0 | 2.0 | 0.00 | 0.00 | 0.00 | 87 | 1010.8 |
| 20260506162003 | 79 | 38 | 1.0 | 2.0 | 0.00 | 0.00 | 0.00 | 87 | 1010.6 |
| 20260506161503 | 79 | 46 | 0.0 | 2.0 | 0.00 | 0.00 | 0.00 | 87 | 1010.6 |
| 20260506161024 | 79 | 149 | 1.0 | 2.0 | 0.00 | 0.00 | 0.00 | 86 | 1010.7 |
| 20260506160503 | 79 | 143 | 1.0 | 2.0 | 0.00 | 0.00 | 0.00 | 86 | 1010.6 |
| 20260506160003 | 79 | 142 | 0.0 | 2.0 | 0.00 | 0.00 | 0.00 | 86 | 1010.8 |
| 20260506155503 | 79 | 178 | 0.0 | 2.0 | 0.00 | 0.00 | 0.00 | 86 | 1010.9 |
| 20260506155003 | 79 | 197 | 0.0 | 2.0 | 0.00 | 0.00 | 0.00 | 87 | 1010.8 |
| 20260506154503 | 79 | 199 | 1.0 | 2.0 | 0.00 | 0.00 | 0.00 | 86 | 1010.6 |
| 20260506154024 | 79 | 193 | 1.0 | 3.0 | 0.00 | 0.00 | 0.00 | 86 | 1010.5 |
| 20260506153503 | 79 | 192 | 1.0 | 3.0 | 0.00 | 0.00 | 0.00 | 87 | 1010.5 |
| 20260506153024 | 79 | 197 | 1.0 | 3.0 | 0.00 | 0.00 | 0.00 | 86 | 1010.6 |
| 20260506152524 | 79 | 191 | 1.0 | 3.0 | 0.00 | 0.00 | 0.00 | 86 | 1010.7 |
| 20260506152024 | 79 | 163 | 1.0 | 3.0 | 0.00 | 0.00 | 0.00 | 86 | 1010.6 |
| 20260506151503 | 78 | 150 | 1.0 | 4.0 | 0.00 | 0.00 | 0.00 | 87 | 1010.5 |
| 20260506151003 | 78 | 168 | 1.0 | 4.0 | 0.00 | 0.00 | 0.00 | 86 | 1010.5 |
| 20260506150503 | 78 | 178 | 1.0 | 3.0 | 0.00 | 0.00 | 0.00 | 87 | 1010.4 |
| 20260506150004 | 78 | 167 | 1.0 | 3.0 | 0.00 | 0.00 | 0.00 | 86 | 1010.4 |
| 20260506145524 | 79 | 178 | 1.0 | 2.0 | 0.00 | 0.00 | 0.00 | 87 | 1010.4 |
| 20260506145003 | 79 | 182 | 1.0 | 2.0 | 0.00 | 0.00 | 0.00 | 86 | 1010.2 |
| 20260506144503 | 79 | 151 | 1.0 | 3.0 | 0.00 | 0.00 | 0.00 | 86 | 1010.1 |
| 20260506144003 | 79 | 153 | 1.0 | 3.0 | 0.00 | 0.00 | 0.00 | 86 | 1010.1 |
| 20260506143503 | 79 | 168 | 1.0 | 3.0 | 0.00 | 0.00 | 0.00 | 86 | 1010.0 |
| 20260506143003 | 79 | 178 | 2.0 | 5.0 | 0.00 | 0.00 | 0.00 | 86 | 1010.0 |
| 20260506142503 | 78 | 174 | 2.0 | 5.0 | 0.00 | 0.00 | 0.00 | 87 | 1010.0 |
| 20260506142003 | 78 | 169 | 2.0 | 4.0 | 0.00 | 0.00 | 0.00 | 87 | 1010.0 |
| 20260506141503 | 78 | 183 | 2.0 | 4.0 | 0.00 | 0.00 | 0.00 | 88 | 1010.0 |
| 20260506141003 | 78 | 190 | 1.0 | 3.0 | 0.00 | 0.00 | 0.00 | 88 | 1010.0 |
| 20260506140503 | 78 | 189 | 1.0 | 5.0 | 0.00 | 0.00 | 0.00 | 88 | 1010.0 |
| 20260506140003 | 78 | 185 | 2.0 | 5.0 | 0.00 | 0.00 | 0.00 | 88 | 1009.9 |
| 20260506135503 | 77 | 191 | 2.0 | 4.0 | 0.00 | 0.00 | 0.00 | 88 | 1009.9 |
| 20260506135003 | 77 | 176 | 2.0 | 4.0 | 0.00 | 0.00 | 0.00 | 89 | 1009.8 |
| 20260506134503 | 77 | 156 | 2.0 | 4.0 | 0.00 | 0.00 | 0.00 | 89 | 1009.9 |
| 20260506134024 | 77 | 171 | 1.0 | 3.0 | 0.00 | 0.00 | 0.00 | 89 | 1009.9 |
| 20260506133503 | 77 | 187 | 1.0 | 4.0 | 0.00 | 0.00 | 0.00 | 90 | 1010.0 |
| 20260506133003 | 77 | 187 | 2.0 | 5.0 | 0.00 | 0.00 | 0.00 | 90 | 1010.0 |
| 20260506132503 | 76 | 176 | 2.0 | 6.0 | 0.00 | 0.00 | 0.00 | 90 | 1009.9 |
| 20260506132024 | 76 | 168 | 2.0 | 6.0 | 0.00 | 0.00 | 0.00 | 91 | 1009.8 |
| 20260506131524 | 76 | 172 | 2.0 | 4.0 | 0.00 | 0.00 | 0.00 | 91 | 1009.7 |
| 20260506131004 | 76 | 165 | 2.0 | 4.0 | 0.00 | 0.00 | 0.00 | 92 | 1009.7 |
| 20260506130504 | 75 | 167 | 2.0 | 4.0 | 0.00 | 0.00 | 0.00 | 92 | 1009.8 |
| 20260506130005 | 75 | 181 | 2.0 | 4.0 | 0.00 | 0.00 | 0.00 | 92 | 1009.8 |
| 20260506125504 | 75 | 181 | 2.0 | 4.0 | 0.00 | 0.00 | 0.00 | 92 | 1009.7 |
| 20260506125025 | 75 | 176 | 1.0 | 4.0 | 0.00 | 0.00 | 0.00 | 92 | 1009.7 |
| 20260506124525 | 75 | 172 | 1.0 | 5.0 | 0.00 | 0.00 | 0.00 | 93 | 1009.7 |
| 20260506124004 | 74 | 170 | 1.0 | 5.0 | 0.00 | 0.00 | 0.00 | 92 | 1009.6 |
| 20260506123525 | 74 | 169 | 1.0 | 5.0 | 0.00 | 0.00 | 0.00 | 93 | 1009.5 |
| 20260506123004 | 74 | 176 | 1.0 | 5.0 | 0.00 | 0.00 | 0.00 | 93 | 1009.6 |
| 20260506122504 | 74 | 191 | 1.0 | 2.0 | 0.00 | 0.00 | 0.00 | 93 | 1009.6 |
| 20260506122004 | 74 | 195 | 1.0 | 2.0 | 0.00 | 0.00 | 0.00 | 93 | 1009.5 |
| 20260506121504 | 74 | 181 | 1.0 | 3.0 | 0.00 | 0.00 | 0.00 | 93 | 1009.4 |
| 20260506121004 | 74 | 178 | 1.0 | 3.0 | 0.00 | 0.00 | 0.00 | 93 | 1009.5 |
| 20260506120525 | 74 | 182 | 1.0 | 3.0 | 0.00 | 0.00 | 0.00 | 92 | 1009.4 |
| 20260506120011 | 74 | 171 | 1.0 | 3.0 | 0.00 | 0.00 | 0.00 | 92 | 1009.3 |
| 20260506115504 | 74 | 168 | 1.0 | 3.0 | 0.00 | 0.00 | 0.00 | 92 | 1009.2 |
| 20260506115004 | 74 | 164 | 1.0 | 5.0 | 0.00 | 0.00 | 0.00 | 92 | 1009.2 |
| 20260506114504 | 74 | 162 | 1.0 | 5.0 | 0.00 | 0.00 | 0.00 | 92 | 1009.1 |
| 20260506114004 | 74 | 161 | 2.0 | 4.0 | 0.00 | 0.00 | 0.00 | 92 | 1009.2 |
| 20260506113525 | 74 | 164 | 2.0 | 4.0 | 0.00 | 0.00 | 0.00 | 92 | 1009.0 |
| 20260506113004 | 74 | 164 | 1.0 | 4.0 | 0.00 | 0.00 | 0.00 | 92 | 1008.9 |
| 20260506112504 | 74 | 157 | 2.0 | 5.0 | 0.00 | 0.00 | 0.00 | 92 | 1008.9 |
| 20260506112004 | 74 | 159 | 1.0 | 5.0 | 0.00 | 0.00 | 0.00 | 92 | 1008.8 |
| 20260506111525 | 74 | 168 | 1.0 | 4.0 | 0.00 | 0.00 | 0.00 | 92 | 1008.9 |
| 20260506111004 | 74 | 176 | 1.0 | 4.0 | 0.00 | 0.00 | 0.00 | 92 | 1008.8 |
| 20260506110504 | 74 | 181 | 2.0 | 4.0 | 0.00 | 0.00 | 0.00 | 92 | 1008.9 |
| 20260506110004 | 74 | 179 | 2.0 | 4.0 | 0.00 | 0.00 | 0.00 | 92 | 1008.8 |
| 20260506105525 | 74 | 171 | 2.0 | 4.0 | 0.00 | 0.00 | 0.00 | 92 | 1008.7 |
| 20260506105004 | 74 | 168 | 2.0 | 4.0 | 0.00 | 0.00 | 0.00 | 92 | 1008.6 |
| 20260506104504 | 74 | 164 | 2.0 | 5.0 | 0.00 | 0.00 | 0.00 | 92 | 1008.6 |
| 20260506104025 | 74 | 167 | 2.0 | 5.0 | 0.00 | 0.00 | 0.00 | 92 | 1008.6 |
| 20260506103504 | 74 | 174 | 2.0 | 4.0 | 0.00 | 0.00 | 0.00 | 92 | 1008.6 |
| 20260506103004 | 74 | 176 | 2.0 | 4.0 | 0.00 | 0.00 | 0.00 | 92 | 1008.5 |
| 20260506102504 | 74 | 178 | 2.0 | 5.0 | 0.00 | 0.00 | 0.00 | 92 | 1008.5 |
| 20260506102004 | 74 | 169 | 2.0 | 5.0 | 0.00 | 0.00 | 0.00 | 92 | 1008.5 |
| 20260506101504 | 74 | 170 | 2.0 | 4.0 | 0.00 | 0.00 | 0.00 | 92 | 1008.5 |
| 20260506101004 | 74 | 172 | 1.0 | 3.0 | 0.00 | 0.00 | 0.00 | 92 | 1008.5 |
| 20260506100504 | 74 | 169 | 1.0 | 5.0 | 0.00 | 0.00 | 0.00 | 92 | 1008.4 |
| 20260506100004 | 74 | 173 | 2.0 | 5.0 | 0.00 | 0.00 | 0.00 | 92 | 1008.5 |
| 20260506095504 | 74 | 173 | 1.0 | 3.0 | 0.00 | 0.00 | 0.00 | 92 | 1008.4 |
| 20260506095004 | 74 | 174 | 1.0 | 3.0 | 0.00 | 0.00 | 0.00 | 92 | 1008.5 |
| 20260506094504 | 74 | 180 | 1.0 | 3.0 | 0.00 | 0.00 | 0.00 | 92 | 1008.4 |
| 20260506094004 | 74 | 169 | 1.0 | 3.0 | 0.00 | 0.00 | 0.00 | 92 | 1008.4 |
| 20260506093504 | 74 | 172 | 1.0 | 2.0 | 0.00 | 0.00 | 0.00 | 92 | 1008.3 |
| 20260506093004 | 74 | 177 | 1.0 | 3.0 | 0.00 | 0.00 | 0.00 | 92 | 1008.3 |
| 20260506092504 | 74 | 183 | 1.0 | 3.0 | 0.00 | 0.00 | 0.00 | 92 | 1008.4 |
| 20260506092004 | 74 | 179 | 1.0 | 3.0 | 0.00 | 0.00 | 0.00 | 91 | 1008.4 |
| 20260506091504 | 74 | 173 | 1.0 | 3.0 | 0.00 | 0.00 | 0.00 | 91 | 1008.3 |
| 20260506091004 | 74 | 166 | 1.0 | 2.0 | 0.00 | 0.00 | 0.00 | 91 | 1008.4 |
| 20260506090525 | 74 | 169 | 1.0 | 2.0 | 0.00 | 0.00 | 0.00 | 91 | 1008.5 |
| 20260506090004 | 74 | 180 | 1.0 | 2.0 | 0.00 | 0.00 | 0.00 | 91 | 1008.5 |
| 20260506085504 | 74 | 182 | 1.0 | 3.0 | 0.00 | 0.00 | 0.00 | 91 | 1008.4 |
| 20260506085004 | 74 | 181 | 1.0 | 3.0 | 0.00 | 0.00 | 0.00 | 91 | 1008.5 |
| 20260506084504 | 74 | 173 | 1.0 | 2.0 | 0.00 | 0.00 | 0.00 | 91 | 1008.5 |
| 20260506084004 | 74 | 174 | 1.0 | 2.0 | 0.00 | 0.00 | 0.00 | 91 | 1008.5 |
| 20260506083504 | 74 | 181 | 1.0 | 2.0 | 0.00 | 0.00 | 0.00 | 91 | 1008.5 |
| 20260506083004 | 74 | 183 | 0.0 | 2.0 | 0.00 | 0.00 | 0.00 | 91 | 1008.5 |
| 20260506082504 | 75 | 190 | 1.0 | 2.0 | 0.00 | 0.00 | 0.00 | 91 | 1008.4 |
| 20260506082004 | 75 | 185 | 1.0 | 2.0 | 0.00 | 0.00 | 0.00 | 91 | 1008.4 |
| 20260506081505 | 75 | 170 | 1.0 | 2.0 | 0.00 | 0.00 | 0.00 | 91 | 1008.4 |
| 20260506081025 | 75 | 176 | 1.0 | 2.0 | 0.00 | 0.00 | 0.00 | 91 | 1008.4 |
| 20260506080504 | 75 | 173 | 1.0 | 3.0 | 0.00 | 0.00 | 0.00 | 91 | 1008.4 |
| 20260506073504 | 75 | 162 | 1.0 | 4.0 | 0.00 | 0.00 | 0.00 | 91 | 1008.5 |
| 20260506073004 | 75 | 169 | 1.0 | 3.0 | 0.00 | 0.00 | 0.00 | 91 | 1008.7 |
| 20260506072505 | 75 | 183 | 1.0 | 3.0 | 0.00 | 0.00 | 0.00 | 91 | 1008.7 |
| 20260506072004 | 75 | 174 | 1.0 | 4.0 | 0.00 | 0.00 | 0.00 | 91 | 1008.6 |
| 20260506071525 | 75 | 160 | 1.0 | 4.0 | 0.00 | 0.00 | 0.00 | 91 | 1008.5 |
| 20260506071004 | 75 | 160 | 1.0 | 2.0 | 0.00 | 0.00 | 0.00 | 91 | 1008.7 |
| 20260506070504 | 75 | 158 | 1.0 | 2.0 | 0.00 | 0.00 | 0.00 | 91 | 1008.7 |
| 20260506062504 | 75 | 178 | 1.0 | 3.0 | 0.00 | 0.00 | 0.00 | 91 | 1008.8 |
| 20260506062004 | 75 | 183 | 2.0 | 3.0 | 0.00 | 0.00 | 0.00 | 91 | 1008.8 |
| 20260506061504 | 75 | 182 | 2.0 | 3.0 | 0.00 | 0.00 | 0.00 | 91 | 1008.7 |
| 20260506061004 | 75 | 182 | 2.0 | 3.0 | 0.00 | 0.00 | 0.00 | 90 | 1008.7 |
| 20260506060504 | 75 | 184 | 1.0 | 4.0 | 0.00 | 0.00 | 0.00 | 90 | 1008.8 |
| 20260506051004 | 76 | 180 | 2.0 | 5.0 | 0.00 | 0.00 | 0.00 | 90 | 1008.6 |
| 20260506050504 | 76 | 179 | 2.0 | 7.0 | 0.00 | 0.00 | 0.00 | 89 | 1008.6 |
| 20260506045004 | 76 | 171 | 2.0 | 5.0 | 0.00 | 0.00 | 0.00 | 89 | 1008.6 |
| 20260506044504 | 76 | 179 | 1.0 | 4.0 | 0.00 | 0.00 | 0.00 | 89 | 1008.7 |
| 20260506044004 | 76 | 189 | 1.0 | 3.0 | 0.00 | 0.00 | 0.00 | 89 | 1008.7 |
| 20260506043504 | 76 | 182 | 1.0 | 4.0 | 0.00 | 0.00 | 0.00 | 89 | 1008.6 |
| 20260506043004 | 76 | 171 | 1.0 | 5.0 | 0.00 | 0.00 | 0.00 | 89 | 1008.6 |
| 20260506042525 | 76 | 165 | 1.0 | 5.0 | 0.00 | 0.00 | 0.00 | 89 | 1008.6 |
| 20260506042004 | 76 | 167 | 1.0 | 3.0 | 0.00 | 0.00 | 0.00 | 89 | 1008.6 |
| 20260506041525 | 76 | 176 | 1.0 | 3.0 | 0.00 | 0.00 | 0.00 | 89 | 1008.6 |
| 20260506041004 | 76 | 178 | 1.0 | 3.0 | 0.00 | 0.00 | 0.00 | 89 | 1008.4 |
| 20260506040504 | 76 | 179 | 1.0 | 3.0 | 0.00 | 0.00 | 0.00 | 89 | 1008.3 |
| 20260506040004 | 76 | 177 | 2.0 | 4.0 | 0.00 | 0.00 | 0.00 | 89 | 1008.4 |
| 20260506035504 | 76 | 174 | 2.0 | 5.0 | 0.00 | 0.00 | 0.00 | 89 | 1008.4 |
| 20260506035004 | 76 | 175 | 2.0 | 6.0 | 0.00 | 0.00 | 0.00 | 89 | 1008.3 |
| 20260506034504 | 76 | 176 | 2.0 | 6.0 | 0.00 | 0.00 | 0.00 | 89 | 1008.2 |
| 20260506034004 | 76 | 177 | 2.0 | 6.0 | 0.00 | 0.00 | 0.00 | 89 | 1008.2 |
| 20260506033504 | 76 | 175 | 2.0 | 5.0 | 0.00 | 0.00 | 0.00 | 89 | 1008.1 |
| 20260506033004 | 76 | 168 | 1.0 | 5.0 | 0.00 | 0.00 | 0.00 | 89 | 1008.1 |
| 20260506032504 | 76 | 174 | 2.0 | 6.0 | 0.00 | 0.00 | 0.00 | 89 | 1008.0 |
| 20260506032004 | 76 | 180 | 2.0 | 6.0 | 0.00 | 0.00 | 0.00 | 89 | 1008.0 |
| 20260506031504 | 76 | 181 | 2.0 | 4.0 | 0.00 | 0.00 | 0.00 | 88 | 1007.9 |
| 20260506031004 | 76 | 181 | 2.0 | 4.0 | 0.00 | 0.00 | 0.00 | 88 | 1007.7 |
| 20260506030504 | 76 | 177 | 2.0 | 4.0 | 0.00 | 0.00 | 0.00 | 88 | 1007.7 |
| 20260506030005 | 76 | 180 | 2.0 | 4.0 | 0.00 | 0.00 | 0.00 | 88 | 1007.5 |
| 20260506025504 | 76 | 171 | 3.0 | 9.0 | 0.00 | 0.00 | 0.00 | 88 | 1007.3 |
| 20260506025004 | 76 | 174 | 3.0 | 9.0 | 0.00 | 0.00 | 0.00 | 88 | 1007.3 |
| 20260506024504 | 76 | 178 | 3.0 | 11.0 | 0.00 | 0.00 | 0.00 | 88 | 1007.2 |
| 20260506024004 | 76 | 175 | 3.0 | 11.0 | 0.00 | 0.00 | 0.00 | 88 | 1007.1 |
| 20260506023504 | 76 | 175 | 3.0 | 6.0 | 0.00 | 0.00 | 0.00 | 87 | 1007.1 |
| 20260506023004 | 76 | 170 | 3.0 | 9.0 | 0.00 | 0.00 | 0.00 | 88 | 1007.1 |
| 20260506022504 | 76 | 176 | 2.0 | 9.0 | 0.00 | 0.00 | 0.00 | 88 | 1007.1 |
| 20260506022004 | 77 | 176 | 2.0 | 9.0 | 0.00 | 0.00 | 0.00 | 88 | 1007.0 |
| 20260506021504 | 77 | 170 | 3.0 | 9.0 | 0.00 | 0.00 | 0.00 | 87 | 1007.0 |
| 20260506021004 | 77 | 172 | 2.0 | 5.0 | 0.00 | 0.00 | 0.00 | 87 | 1006.9 |
| 20260506020504 | 77 | 176 | 2.0 | 6.0 | 0.00 | 0.00 | 0.00 | 87 | 1006.9 |
| 20260506020004 | 77 | 178 | 2.0 | 6.0 | 0.00 | 0.00 | 0.00 | 87 | 1006.9 |
| 20260506015504 | 77 | 185 | 2.0 | 4.0 | 0.00 | 0.00 | 0.00 | 87 | 1006.7 |
| 20260506015004 | 77 | 186 | 2.0 | 4.0 | 0.00 | 0.00 | 0.00 | 87 | 1006.6 |
| 20260506014504 | 77 | 181 | 1.0 | 4.0 | 0.00 | 0.00 | 0.00 | 87 | 1006.6 |
| 20260506014025 | 77 | 182 | 1.0 | 3.0 | 0.00 | 0.00 | 0.00 | 87 | 1006.5 |
| 20260506013504 | 77 | 185 | 2.0 | 6.0 | 0.00 | 0.00 | 0.00 | 86 | 1006.4 |
| 20260506013004 | 78 | 183 | 2.0 | 6.0 | 0.00 | 0.00 | 0.00 | 86 | 1006.3 |
| 20260506012525 | 78 | 177 | 2.0 | 4.0 | 0.00 | 0.00 | 0.00 | 86 | 1006.2 |
| 20260506012004 | 78 | 175 | 2.0 | 8.0 | 0.00 | 0.00 | 0.00 | 86 | 1006.2 |
| 20260506011504 | 78 | 181 | 2.0 | 8.0 | 0.00 | 0.00 | 0.00 | 86 | 1006.1 |
| 20260506011004 | 78 | 182 | 2.0 | 7.0 | 0.00 | 0.00 | 0.00 | 86 | 1006.0 |
| 20260506010504 | 78 | 172 | 2.0 | 8.0 | 0.00 | 0.00 | 0.00 | 85 | 1005.9 |
| 20260506010004 | 78 | 173 | 2.0 | 8.0 | 0.00 | 0.00 | 0.00 | 85 | 1005.9 |
| 20260506005504 | 79 | 169 | 3.0 | 11.0 | 0.00 | 0.00 | 0.00 | 85 | 1005.8 |
| 20260506005004 | 79 | 167 | 3.0 | 11.0 | 0.00 | 0.00 | 0.00 | 84 | 1005.7 |
| 20260506004504 | 79 | 170 | 4.0 | 9.0 | 0.00 | 0.00 | 0.00 | 84 | 1005.7 |
| 20260506004004 | 79 | 171 | 3.0 | 9.0 | 0.00 | 0.00 | 0.00 | 84 | 1005.5 |
| 20260506003504 | 80 | 176 | 2.0 | 7.0 | 0.00 | 0.00 | 0.00 | 83 | 1005.4 |
| 20260506003004 | 80 | 179 | 2.0 | 7.0 | 0.00 | 0.00 | 0.00 | 83 | 1005.4 |
| 20260506002504 | 80 | 174 | 2.0 | 5.0 | 0.00 | 0.00 | 0.00 | 83 | 1005.5 |
| 20260506002004 | 80 | 166 | 2.0 | 10.0 | 0.00 | 0.00 | 0.00 | 82 | 1005.4 |
| 20260506001507 | 80 | 172 | 3.0 | 10.0 | 0.00 | 0.00 | 0.00 | 81 | 1005.5 |
| 20260506001025 | 81 | 173 | 3.0 | 10.0 | 0.00 | 0.00 | 0.00 | 81 | 1005.6 |
| 20260506000524 | 81 | 177 | 3.0 | 7.0 | 0.00 | 0.00 | 0.00 | 81 | 1005.5 |
| 20260506000004 | 81 | 179 | 3.0 | 7.0 | 0.00 | 0.00 | 0.00 | 80 | 1005.6 |
| 20260505235504 | 82 | 166 | 4.0 | 9.0 | 0.00 | 0.00 | 0.00 | 79 | 1005.7 |
| 20260505235003 | 82 | 166 | 4.0 | 9.0 | 0.00 | 0.00 | 0.00 | 79 | 1005.6 |
| 20260505234503 | 82 | 173 | 4.0 | 8.0 | 0.00 | 0.00 | 0.00 | 78 | 1005.5 |
| 20260505234003 | 82 | 167 | 3.0 | 9.0 | 0.00 | 0.00 | 0.00 | 78 | 1005.5 |
| 20260505233525 | 83 | 167 | 3.0 | 9.0 | 0.00 | 0.00 | 0.00 | 77 | 1005.5 |
| 20260505233004 | 83 | 171 | 3.0 | 9.0 | 0.00 | 0.00 | 0.00 | 77 | 1005.5 |
| 20260505232504 | 83 | 177 | 2.0 | 8.0 | 0.00 | 0.00 | 0.00 | 77 | 1005.4 |
| 20260505232004 | 84 | 182 | 2.0 | 6.0 | 0.00 | 0.00 | 0.00 | 77 | 1005.6 |
| 20260505231525 | 84 | 182 | 3.0 | 6.0 | 0.00 | 0.00 | 0.00 | 76 | 1005.6 |
| 20260505231004 | 83 | 180 | 3.0 | 6.0 | 0.00 | 0.00 | 0.00 | 77 | 1005.7 |
| 20260505230504 | 83 | 176 | 3.0 | 6.0 | 0.00 | 0.00 | 0.00 | 77 | 1005.7 |
| 20260505230004 | 83 | 181 | 3.0 | 8.0 | 0.00 | 0.00 | 0.00 | 76 | 1005.8 |